Weather reports worldwide

Advertisment
Brest, France (7110): temperature & dewpoint: 11.10.2018 06:00:00 - 17.10.2018 06:00:00 (CEST)Brest, France (7110): temperature 5cm: 11.10.2018 06:00:00 - 17.10.2018 06:00:00 (CEST)Brest, France (7110): temperature -20cm & temperature -100cm: 11.10.2018 06:00:00 - 17.10.2018 06:00:00 (CEST)Brest, France (7110): wind speed & gusts: 11.10.2018 06:00:00 - 17.10.2018 06:00:00 (CEST)Brest, France (7110): wind direction: 11.10.2018 06:00:00 - 17.10.2018 06:00:00 (CEST)Brest, France (7110): reduced air pressure: 11.10.2018 06:00:00 - 17.10.2018 06:00:00 (CEST)Brest, France (7110): visibility: 11.10.2018 06:00:00 - 17.10.2018 06:00:00 (CEST)Brest, France (7110): sunshine duration: 11.10.2018 06:00:00 - 17.10.2018 06:00:00 (CEST)Brest, France (7110): precipitation: 11.10.2018 06:00:00 - 17.10.2018 06:00:00 (CEST)
Date & Time tt [°C] td [°C] tt 5cm [°C] tt -20cm [°C] tt -100cm [°C] ff [km/h] ff [kn] fx [km/h] fx [kn] dd ppp [hPa] vv [km] sd [min] rr [mm]
17.10.2018 06:00:00 11,9 11,4 11,3 14,6 15,1 10 5 15 8 S 1017,8 6 0 0,0
17.10.2018 05:00:00 11,4 10,9 10,9 14,6 15,1 9 5 14 8 SSE 1017,9 7 0 0,0
17.10.2018 04:00:00 11,3 10,7 9,9 14,7 15,1 10 6 21 11 S 1018,3 10 0 0,0
17.10.2018 03:00:00 11,0 10,4 9,6 14,7 15,1 15 8 22 12 S 1018,6 20 0 0,0
17.10.2018 02:00:00 10,6 10,1 7,2 14,7 15,1 14 7 20 11 S 1019,0 20 0 0,2
17.10.2018 01:00:00 10,1 9,5 4,7 14,8 15,1 14 7 21 11 S 1019,2 15 0 0,0
17.10.2018 00:00:00 10,0 9,2 4,5 14,9 15,1 14 8 19 11 S 1019,3 14 0 0,0
16.10.2018 23:00:00 10,6 10,0 5,1 14,9 15,1 12 7 18 10 S 1019,3 17 0 0,0
16.10.2018 22:00:00 10,4 9,2 5,4 15,0 15,2 9 5 15 8 S 1019,2 20 0 0,0
16.10.2018 21:00:00 11,6 9,3 7,4 15,0 15,2 10 6 15 8 S 1019,1 36 0 0,0
16.10.2018 20:00:00 12,8 9,6 10,4 14,9 15,1 10 5 23 12 SSW 1018,9 60 2 0,0
16.10.2018 19:00:00 14,5 9,9 13,9 14,8 15,1 11 6 23 12 SW 1018,5 59 10 0,0
16.10.2018 18:00:00 14,4 9,8 14,6 14,8 15,1 16 9 23 13 SW 1018,3 60 0 0,0
16.10.2018 17:00:00 14,8 8,9 15,7 14,7 15,1 20 11 27 15 SW 1018,3 60 2 0,0
16.10.2018 16:00:00 15,4 10,2 17,2 14,7 15,1 16 9 25 14 SW 1018,1 55 25 0,0
16.10.2018 15:00:00 15,8 10,8 17,5 14,6 15,1 20 11 33 18 SSW 1017,8 41 29 0,0
16.10.2018 14:00:00 16,3 11,2 16,5 14,6 15,1 16 9 27 15 SW 1017,8 45 45 0,0
16.10.2018 13:00:00 14,4 10,4 15,6 14,6 15,1 11 6 23 12 SSW 1017,8 53 20 0,0
16.10.2018 12:00:00 14,7 10,7 14,8 14,6 15,1 13 7 18 10 SW 1017,5 44 50 0,0
16.10.2018 11:00:00 12,8 10,9 13,0 14,6 15,1 10 5 14 7 S 1017,2 12 37 0,0
16.10.2018 10:00:00 11,8 11,3 10,2 14,7 15,2 8 4 9 5 S 1016,8 0,3 2 0,0
16.10.2018 09:00:00 11,4 10,9 10,6 14,6 15,1 3 2 9 5 S 1016,3 1,5 0 0,0
16.10.2018 08:00:00 11,5 11,0 11,5 14,6 15,1 5 3 7 4 SE 1015,7 4,8 0 0,0
16.10.2018 07:00:00 11,5 11,0 11,6 14,6 15,1 0 0 2 1 N 1015,4 3,4 0 0,0
16.10.2018 06:00:00 11,5 11,0 11,6 14,6 15,1 0 0 8 4 N 1014,8 3,5 0 0,0
16.10.2018 05:00:00 11,4 11,1 11,6 14,7 15,1 3 2 9 5 N 1014,4 4,5 0 0,0
16.10.2018 04:00:00 11,5 11,2 11,7 14,7 15,1 4 2 13 7 WSW 1014,5 1,6 0 0,2
16.10.2018 03:00:00 11,9 11,6 12,1 14,7 15,1 7 4 11 6 WNW 1014,5 0,3 0 0,0
16.10.2018 02:00:00 12,0 11,5 12,2 14,7 15,2 0 0 7 4 N 1014,1 2,3 0 0,0
16.10.2018 01:00:00 12,2 11,7 11,9 14,7 15,2 4 2 10 5 N 1013,9 5 0 0,0
16.10.2018 00:00:00 12,3 11,8 12,3 14,7 15,2 4 2 7 4 N 1013,8 4,1 0 0,0
15.10.2018 23:00:00 12,2 11,9 12,2 14,7 15,2 5 3 11 6 NNW 1013,5 1,0 0 0,0
15.10.2018 22:00:00 12,1 11,8 12,2 14,7 15,2 8 5 17 9 N 1012,9 0,8 0 0,0
15.10.2018 21:00:00 12,0 11,5 12,1 14,7 15,2 8 5 18 10 N 1012,3 1,4 0 0,0
15.10.2018 20:00:00 12,0 11,5 12,1 14,7 15,2 10 6 19 10 N 1012,1 1,7 0 0,0
15.10.2018 19:00:00 12,1 11,5 12,4 14,6 15,2 9 5 15 8 N 1011,7 8 0 0,0
15.10.2018 18:00:00 12,4 11,8 13,1 14,6 15,2 11 6 17 9 NNW 1011,3 4,1 0 0,0
15.10.2018 17:00:00 12,4 11,6 13,4 14,6 15,2 12 7 20 11 NNW 1011,1 2,9 0 0,0
15.10.2018 16:00:00 12,8 11,7 14,3 14,5 15,1 14 7 20 11 N 1010,6 19 0 0,0
15.10.2018 15:00:00 12,8 11,5 14,6 14,5 15,1 11 6 22 12 NNW 1010,3 8 2 0,2
15.10.2018 14:00:00 12,4 11,3 14,2 14,5 15,2 13 7 24 13 N 1010,3 8 5 0,0
15.10.2018 13:00:00 12,4 11,6 13,3 14,5 15,2 13 7 26 14 N 1010,1 6 0 0,0
15.10.2018 12:00:00 11,9 11,3 12,6 14,5 15,2 14 8 26 14 NNW 1009,9 1,6 0 0,0
15.10.2018 11:00:00 11,8 11,2 12,3 14,6 15,2 12 7 24 13 NNW 1009,3 2,8 0 0,2
15.10.2018 10:00:00 11,6 11,1 11,5 14,6 15,2 11 6 19 10 N 1008,7 2,0 0 0,0
15.10.2018 09:00:00 11,3 10,8 11,3 14,6 15,2 10 5 18 10 NNW 1008,0 3,2 0 0,2
15.10.2018 08:00:00 11,3 10,7 11,3 14,6 15,2 14 7 24 13 N 1007,5 6 0 0,0
15.10.2018 07:00:00 11,4 10,8 11,3 14,6 15,2 9 5 19 11 N 1007,2 3,5 0 0,2
15.10.2018 06:00:00 11,3 10,7 11,2 14,6 15,2 11 6 22 12 N 1007,1 10 0 0,0
15.10.2018 05:00:00 11,2 10,7 11,1 14,6 15,1 13 7 21 11 N 1007,0 8 0 0,0
15.10.2018 04:00:00 11,2 10,6 11,0 14,6 15,1 11 6 20 11 NNW 1007,8 10 0 0,0
15.10.2018 03:00:00 11,2 10,6 11,0 14,7 15,2 13 7 21 11 N 1007,6 7 0 0,2
15.10.2018 02:00:00 11,2 10,6 11,0 14,7 15,1 12 7 22 12 N 1007,4 4,9 0 0,2
15.10.2018 01:00:00 11,3 10,4 11,1 14,8 15,2 16 9 26 14 N 1007,3 14 0 0,2
15.10.2018 00:00:00 11,6 10,0 11,1 14,7 15,2 12 7 27 15 N 1007,7 7 0 0,2
14.10.2018 23:00:00 11,7 9,9 11,1 14,7 15,2 11 6 24 13 N 1007,5 17 0 0,0
14.10.2018 22:00:00 11,6 10,0 11,1 14,8 15,1 14 7 32 17 N 1007,6 41 0 0,0
14.10.2018 21:00:00 11,7 10,3 11,1 14,8 15,2 16 9 30 16 NNE 1007,3 14 0 0,0
14.10.2018 20:00:00 11,8 10,4 11,5 14,8 15,2 17 9 27 15 N 1007,2 14 0 0,0
14.10.2018 19:00:00 11,7 10,8 11,6 14,8 15,2 10 5 31 17 N 1007,2 20 0 0,4
14.10.2018 18:00:00 12,1 10,8 12,0 14,7 15,1 19 10 30 16 N 1006,9 3,9 0 0,2
14.10.2018 17:00:00 12,2 10,9 12,4 14,7 15,1 17 9 33 18 N 1006,9 6 0 0,2
14.10.2018 16:00:00 12,5 11,1 12,6 14,8 15,1 16 9 39 21 N 1006,7 7 0 0,0
14.10.2018 15:00:00 12,3 10,7 12,3 14,8 15,2 22 12 40 22 N 1006,4 17 0 0,0
14.10.2018 14:00:00 12,2 10,8 12,4 14,8 15,1 19 10 35 19 NNE 1006,9 11 0 0,2
14.10.2018 13:00:00 12,5 11,2 12,4 14,8 15,1 20 11 33 18 NNE 1006,9 20 0 0,4
14.10.2018 12:00:00 12,1 11,0 11,9 14,9 15,1 20 11 45 24 NNE 1006,2 12 0 1,0
14.10.2018 11:00:00 12,0 10,9 11,6 14,9 15,1 23 12 37 20 NNE 1005,2 16 0 1,2
14.10.2018 10:00:00 11,9 11,0 11,1 15,0 15,1 19 10 58 32 NNE 1006,0 11 0 3,4
14.10.2018 09:00:00 11,9 11,0 11,6 15,1 15,1 24 13 50 27 N 1004,8 3,3 0 3,1
14.10.2018 08:00:00 12,1 11,5 12,0 15,1 15,1 18 10 37 20 N 1003,8 6 0 1,8
14.10.2018 07:00:00 12,2 11,7 11,9 15,2 15,1 14 7 30 16 N 1004,2 5 0 7,5
14.10.2018 06:00:00 12,2 11,7 11,9 15,4 15,1 14 8 28 15 WNW 1005,0 6 0 2,6
14.10.2018 05:00:00 12,3 11,8 12,2 15,4 15,1 4 2 10 6 N 1005,0 2,1 0 5,8
14.10.2018 04:00:00 12,5 12,0 12,3 15,5 15,1 4 2 13 7 NNW 1005,1 3,4 0 4,9
14.10.2018 03:00:00 12,6 12,0 12,4 15,5 15,1 8 4 11 6 ENE 1005,3 3,4 0 3,8
14.10.2018 02:00:00 12,6 11,7 12,2 15,6 15,1 0 0 15 8 N 1006,8 10 0 2,2
14.10.2018 01:00:00 13,2 12,4 13,0 15,6 15,1 14 7 19 10 S 1007,9 4,8 0 2,1
14.10.2018 00:00:00 13,6 12,8 13,2 15,6 15,1 10 5 26 14 S 1008,6 11 0 2,8
13.10.2018 23:00:00 14,0 13,0 13,6 15,6 15,1 14 8 21 12 S 1008,4 10 0 0,6
13.10.2018 22:00:00 14,3 13,2 13,8 15,6 15,1 10 5 31 17 SSW 1008,2 57 0 0,6
13.10.2018 21:00:00 14,9 13,8 14,5 15,6 15,1 19 11 36 19 SW 1008,5 6 0 0,8
13.10.2018 20:00:00 15,9 13,9 15,1 15,6 15,1 24 13 52 28 SW 1007,9 11 0 0,4
13.10.2018 19:00:00 17,7 15,0 16,9 15,5 15,1 29 15 54 29 SSW 1006,9 6 0 0,0
13.10.2018 18:00:00 18,4 14,9 17,4 15,5 15,1 35 19 79 43 SSW 1006,8 12 0 0,0
13.10.2018 17:00:00 19,3 14,5 19,0 15,5 15,1 37 20 67 36 SSW 1006,7 20 0 0,0
13.10.2018 16:00:00 20,0 14,4 19,7 15,4 15,1 39 21 67 36 SSW 1006,6 47 0 0,0
13.10.2018 15:00:00 20,8 14,4 20,6 15,4 15,1 49 26 74 40 S 1006,6 36 0 0,0
13.10.2018 14:00:00 21,4 14,8 21,2 15,4 15,1 49 26 77 42 S 1007,3 23 0 0,0
13.10.2018 13:00:00 21,0 14,9 19,4 15,3 15,1 42 23 68 37 S 1007,8 20 0 0,0
13.10.2018 12:00:00 20,1 14,2 20,0 15,3 15,1 38 21 60 32 S 1008,8 44 11 0,0
13.10.2018 11:00:00 20,0 14,4 17,5 15,3 15,1 32 17 54 29 S 1008,6 44 5 0,0
13.10.2018 10:00:00 19,0 14,3 17,1 15,3 15,1 27 14 47 25 S 1008,6 58 0 0,0
13.10.2018 09:00:00 19,3 13,9 17,1 15,3 15,1 34 19 53 28 S 1008,6 60 0 0,0
13.10.2018 08:00:00 19,5 14,5 16,7 15,2 15,1 33 18 49 26 SSW 1008,3 60 0 0,0
13.10.2018 07:00:00 17,8 15,1 16,4 15,2 15,1 27 15 63 34 S 1008,5 46 0 0,0
13.10.2018 06:00:00 17,4 16,3 16,8 15,2 15,1 35 19 63 34 S 1008,9 8 0 1,2
13.10.2018 05:00:00 17,8 16,3 16,8 15,2 15,1 41 22 67 36 S 1009,2 46 0 0,6
13.10.2018 04:00:00 17,7 15,7 16,9 15,2 15,1 39 21 61 33 SSW 1009,6 7 0 2,4
13.10.2018 03:00:00 17,9 15,9 17,0 15,1 15,1 36 20 68 37 SSW 1010,1 2,3 0 2,0
13.10.2018 02:00:00 18,6 15,7 17,4 15,1 15,1 39 21 67 36 S 1009,9 51 0 0,0
13.10.2018 01:00:00 18,6 15,7 16,9 15,1 15,1 44 24 69 37 S 1010,7 19 0 0,0
13.10.2018 00:00:00 17,9 16,1 17,0 15,0 15,1 40 22 65 35 SSW 1010,9 7 0 0,2
12.10.2018 23:00:00 17,8 16,3 17,1 15,0 15,1 39 21 68 37 S 1011,1 9 0 0,0
12.10.2018 22:00:00 18,7 15,4 18,1 15,0 15,1 40 22 61 33 S 1010,9 20 0 0,0
12.10.2018 21:00:00 18,5 15,2 17,8 15,0 15,1 40 22 67 36 SSW 1010,9 20 0 0,0
12.10.2018 20:00:00 18,4 15,1 18,1 14,9 15,1 42 23 69 38 S 1010,8 20 0 0,0
12.10.2018 19:00:00 18,8 14,5 18,0 14,8 15,1 44 24 71 38 S 1010,4 20 0 0,0
12.10.2018 18:00:00 18,2 14,1 17,9 14,8 15,1 46 25 71 38 S 1010,3 20 0 0,0
12.10.2018 17:00:00 18,2 13,1 17,4 14,8 15,1 49 26 81 44 S 1010,2 20 0 0,0
12.10.2018 16:00:00 18,2 13,5 16,6 14,8 15,1 50 27 81 44 S 1009,5 18 0 0,0
12.10.2018 15:00:00 19,1 12,8 19,0 14,7 15,1 49 27 81 44 S 1009,0 20 0 0,0
12.10.2018 14:00:00 19,0 12,7 19,2 14,7 15,1 53 28 92 50 S 1008,7 18 2 0,0
12.10.2018 13:00:00 19,2 13,1 18,4 14,7 15,1 51 28 82 44 S 1008,3 18 2 0,0
12.10.2018 12:00:00 18,4 12,6 18,0 14,6 15,1 53 29 79 42 S 1007,8 19 0 0,0
12.10.2018 11:00:00 17,9 12,6 17,5 14,7 15,1 47 25 78 42 S 1007,8 19 0 0,0
12.10.2018 10:00:00 17,8 11,8 16,9 14,7 15,1 48 26 82 44 S 1007,5 36 0 0,0
12.10.2018 09:00:00 17,3 11,8 16,6 14,6 15,1 48 26 81 44 S 1007,1 20 0 0,0
12.10.2018 08:00:00 17,1 12,2 16,4 14,6 15,1 46 25 76 41 S 1006,9 20 0 0,0
12.10.2018 07:00:00 16,9 12,6 16,2 14,7 15,1 46 25 86 47 S 1006,7 20 0 0,0
12.10.2018 06:00:00 16,7 12,8 15,6 14,7 15,1 45 24 73 39 S 1006,5 20 0 0,0
12.10.2018 05:00:00 16,1 12,6 14,6 14,7 15,1 42 23 68 37 S 1006,5 47 0 0,0
12.10.2018 04:00:00 15,6 12,2 13,7 14,7 15,1 45 24 71 38 S 1006,6 46 0 0,2
12.10.2018 03:00:00 15,1 11,7 13,5 14,7 15,1 38 21 59 32 S 1006,6 19 0 0,0
12.10.2018 02:00:00 15,1 11,1 13,8 14,7 15,1 36 19 53 29 S 1006,2 20 0 0,0
12.10.2018 01:00:00 14,6 11,2 13,2 14,7 15,1 36 19 53 29 S 1006,9 20 0 0,0
12.10.2018 00:00:00 13,9 10,9 12,3 14,8 15,1 26 14 38 21 S 1007,1 42 0 0,0
11.10.2018 23:00:00 13,1 11,0 11,6 14,8 15,1 21 11 34 18 S 1006,9 20 0 0,0
11.10.2018 22:00:00 12,9 10,6 11,2 14,8 15,2 18 10 28 15 S 1006,6 46 0 0,0
11.10.2018 21:00:00 12,8 9,8 11,3 14,8 15,1 17 9 36 19 S 1006,4 49 0 0,0
11.10.2018 20:00:00 13,8 9,8 12,4 14,8 15,1 24 13 43 23 SSW 1006,2 55 12 0,0
11.10.2018 19:00:00 15,1 11,9 14,3 14,7 15,1 25 13 41 22 SSW 1005,2 19 37 0,0
11.10.2018 18:00:00 15,1 11,5 15,3 14,7 15,2 27 15 42 23 SSW 1004,5 20 35 0,0
11.10.2018 17:00:00 15,7 10,7 16,0 14,7 15,2 27 15 58 31 SW 1004,3 17 54 0,0
11.10.2018 16:00:00 16,1 12,3 16,0 14,6 15,1 32 17 59 32 SSW 1003,3 10 16 0,0
11.10.2018 15:00:00 15,6 12,5 14,6 14,6 15,2 23 12 37 20 SSW 1002,9 19 4 0,0
11.10.2018 14:00:00 14,7 12,0 14,7 14,5 15,1 26 14 49 26 SW 1002,0 20 0 0,2
11.10.2018 13:00:00 15,1 12,0 16,3 14,5 15,1 35 19 64 34 WSW 1001,3 40 0 0,0
11.10.2018 12:00:00 16,0 12,7 16,2 14,5 15,1 46 25 74 40 SW 999,5 19 5 0,0
11.10.2018 11:00:00 16,4 13,5 14,8 14,5 15,1 43 23 69 37 S 998,1 20 0 0,0
11.10.2018 10:00:00 15,3 13,7 14,4 14,5 15,2 32 17 56 30 S 998,4 34 0 0,0
11.10.2018 09:00:00 14,7 13,7 13,7 14,5 15,2 23 12 37 20 SSE 998,6 10 0 0,6
11.10.2018 08:00:00 14,3 13,3 13,0 14,5 15,2 16 9 27 15 SSE 999,6 12 0 0,4
11.10.2018 07:00:00 14,5 13,2 13,4 14,5 15,2 15 8 23 12 S 999,4 18 0 0,4
11.10.2018 06:00:00 14,5 13,2 13,2 14,6 15,2 14 7 24 13 SE 998,9 20 0 0,0

tt = temperature
td = dewpoint
tt 5cm = temperature 5cm
tt -20cm = temperature -20cm
tt -100cm = temperature -100cm
ff = wind speed
fx = gusts
dd = wind direction
ppp = reduced air pressure
vv = visibility
sd = sunshine duration
rr = precipitation

Next stations